Simultaneous Nadir Overpasses (SNOs) Predictions

Prediction of SNOs between GOES-16 and LANDSAT-8 Satellite Orbit:

Table of predicted SNOs for the next 14.0 days since TLE Epoch: 4/18/2020
Index Date Time (GOES-16) GOES-16 Lat,Lon LANDSAT-8 Lat,Lon Distance(km) Time Diff (sec)
1 04/18/2020 14:56:33 0.01, -75.19 -0.89, -70.96 480.19 80
2 04/19/2020 03:17:57 -0.01, -75.16 -0.22, -76.16 113.23 80
3 04/21/2020 03:03:05 -0.01, -75.17 0.42, -73.20 223.40 80
4 04/21/2020 15:24:19 0.01, -75.19 0.69, -78.36 359.83 80
5 04/23/2020 15:12:07 0.01, -75.21 0.05, -75.41 22.55 80
6 04/25/2020 15:02:35 0.01, -75.22 -0.60, -72.45 315.00 80
7 04/26/2020 03:23:59 -0.01, -75.20 -0.51, -77.65 277.94 80
8 04/28/2020 03:09:06 -0.01, -75.21 0.08, -74.68 59.76 80
9 04/30/2020 02:56:54 -0.00, -75.23 0.73, -71.73 397.56 80
10 04/30/2020 15:18:10 0.00, -75.26 0.32, -76.90 185.58 80




NCC Satellite Simultaneous Nadir Overpasses (SNOs) Prediction Service
